Regional Weather Roundup
Issued by NWS

Home | Current Version | Previous Version | Text Only | Print | Product List | Glossary On
Versions: 1 2 3 4 5 6 7 8 9 10 11 12 13 14 15 16 17 18 19 20 21 22 23 24 25 26 27 28 29 30 31 32 33 34 35 36 37 38 39 40 41 42 43 44 45 46 47 48 49 50
000
ASUS43 KOAX 010510
RWRNE

WEATHER ROUNDUP FOR NEBRASKA
NATIONAL WEATHER SERVICE OMAHA NE
1200 AM CDT MON MAY 01 2017

NOTES: SATELLITE DATA IS BEING USED TO AUGMENT CLOUD COVER ABOVE
       12000 FEET.
       "FAIR" INDICATES FEW OR NO CLOUDS BELOW 12,000 FEET WITH NO
       SIGNIFICANT WEATHER AND/OR OBSTRUCTIONS TO VISIBILITY.

  * THESE STATIONS DO NOT REPORT WEATHER SUCH AS RAIN...SNOW OR FOG.

NEZ001>004-019>022-054>056-010600-
NEBRASKA PANHANDLE

CITY           SKY/WX    TMP DP  RH WIND       PRES   REMARKS
SCOTTSBLUFF    CLOUDY    41  28  60 W5        29.85S
ALLIANCE       CLOUDY    37  26  64 N9        29.82F WCI  30
CHADRON        CLOUDY    35  27  72 W5        29.84F WCI  31
KIMBALL        CLEAR     34  26  75 NW7       29.86S WCI  27
SIDNEY         CLOUDY    40  24  53 N12       29.83S WCI  33
$$

NEZ057>060-069>072-079>082-010600-
SOUTHWEST NEBRASKA

CITY           SKY/WX    TMP DP  RH WIND       PRES   REMARKS
NORTH PLATTE   CLOUDY    44  23  43 N12       29.71F
IMPERIAL       CLOUDY    42  24  49 NW12      29.76S
LEXINGTON      FLURRIES  34  32  93 N15       29.69F WCI  24
MCCOOK         CLOUDY    35  31  85 N3        29.72S
OGALLALA       CLOUDY    44  26  51 NW10      29.77S
$$

NEZ005>010-023>029-035>040-094-010600-
NORTH CENTRAL NEBRASKA

CITY           SKY/WX    TMP DP  RH WIND       PRES   REMARKS
VALENTINE      CLOUDY    45  18  34 N12       29.75F
AINSWORTH      CLOUDY    37  30  78 CALM      29.71F
BROKEN BOW     CLOUDY    35  32  88 N22G32    29.65F WCI  23
O`NEILL        LGT SNOW  34  33  94 N15       29.66F WCI  24
ORD            LGT SNOW  33  31  92 N13       29.64F FOG     WCI  24
THEDFORD       CLOUDY    43  22  42 N12       29.72F
$$

NEZ041-046>049-061>064-073>077-083>087-010600-
SOUTH CENTRAL NEBRASKA

CITY           SKY/WX    TMP DP  RH WIND       PRES   REMARKS
GRAND ISLAND   LGT SNOW  33  33 100 NW21      29.59F FOG     WCI  21
AURORA         LGT SNOW  33  33  99 NW22G28   29.57F WCI  21
HASTINGS       LGT SNOW  33  32  96 N23G31    29.59F FOG     WCI  21
HEBRON         CLOUDY    36  36  99 NW17      29.53R FOG     WCI  26
HOLDREGE       CLOUDY    34  32  94 N22G28    29.63F WCI  22
KEARNEY *      CLOUDY    34  28  80 N23G29    29.63S WCI  22
YORK           CLOUDY    36  36 100 N17       29.53F WCI  25
$$

NEZ011>018-030>034-042>045-010600-
NORTHEAST NEBRASKA

CITY           SKY/WX    TMP DP  RH WIND       PRES   REMARKS
NORFOLK        MIX PCPN  33  31  92 N17G24    29.56F WCI  22
ALBION         LGT SNOW  35  32  90 N15G24    29.59F WCI  25
BLAIR          LGT RAIN  40  39  96 N21G28    29.44F WCI  31
FREMONT        CLOUDY    39  39 100 N9G18     29.49F FOG     WCI  33
TEKAMAH        CLOUDY    39  37  92 N25       29.49F WCI  28
WAYNE          LGT RAIN  33  33  99 N16G22    29.56F WCI  23
$$

NEZ050>053-065>068-078-088>093-010600-
SOUTHEAST NEBRASKA

CITY           SKY/WX    TMP DP  RH WIND       PRES   REMARKS
LINCOLN        LGT RAIN  41  39  93 N17       29.49S FOG
OMAHA EPPLEY   DRIZZLE   42  38  85 N13       29.46F FOG
BEATRICE       LGT RAIN  41  41  99 N14       29.46S
FALLS CITY     LGT RAIN  44  42  93 S5        29.43F
NEBRASKA CITY  LGT RAIN  43  43 100 CALM      29.43F
PLATTSMOUTH    RAIN      42  39  90 N8        29.45S
$$

NEZ044-045-051>053-067-010600-
OMAHA AREA

CITY           SKY/WX    TMP DP  RH WIND       PRES   REMARKS
OMAHA EPPLEY   DRIZZLE   42  38  85 N13       29.46F FOG
BLAIR          LGT RAIN  40  39  96 N21G28    29.44F WCI  31
FREMONT        CLOUDY    39  39 100 N9G18     29.49F FOG     WCI  33
MILLARD        DRIZZLE   43  41  94 N8        29.46F
OFFUTT AFB     RAIN      43  41  93 N7        29.44F
PLATTSMOUTH    RAIN      42  39  90 N8        29.45S
WAHOO          DRIZZLE   40  38  95 N17G23    29.48F WCI  31
$$




USA.gov is the U.S. government's official web portal to all federal, state and local government web resources and services.